Showing default

KUIPER-00375, 68868

Orbit data source: Space-Track

KUIPER-00375, 68868 is an American payload satellite in LEO that was launched on Tue, 28 Apr 2026 UTC launched from the Air Force Eastern Test Range (AFETR). Payload-class satellites include a variety of spacecraft equipped with specific instruments for various scientific and technological missions. These include communications satellites like Starlink; space stations such as the ISS; scientific satellites like the Hubble; Earth observation satellites from companies like Planet Labs, Umbra, and HawkEye 360; GPS; miniature CubeSats for education and research; and military/defense satellites.

Loading next visibility...
Identifier
68868, 2026-095E
Orbit
LEO
Country
Flag of USUS
Related business
None
Manufacturer
Unknown
Mission
Operational spacecraft
Bus & Motor
Unknown
Mass
Unknown
Launch date (UTC)
2026-04-28 (4 days ago)
Launch vehicle
Unknown
Launch site
Air Force Eastern Test Range (AFETR)
Object type
Payload
Rocket body
Debris
Shape & HBR
Unknown
Radar Cross Section
RCS unknown

Expand to show TLE details & history
Last TLE update: 7 hours ago

TLE from 7 hours ago
0 KUIPER-00375
1 68868U 26095E   26122.16670139  .00001845  00000-0  58510-4 0  9995
2 68868  51.8819 104.8753 0001704  86.0085 131.2289 15.38245963  1831
Epoch: 2026-05-02T04:00Z
TLE epoch observation values (Epoch: 2026-05-02T04:00:03.000Z)
Latitude
-28.64067°
Longitude
29.99666°
Altitude
460.546 km
Speed
7.636 km/s
True Right ascension
20h 40m 23s
True Declination
-28° 29' 24"
Sunlit
Object was in daylight at epoch
Visualization orbit readout
Latitude
Unknown
Longitude
Unknown
Altitude
Unknown
Speed
Unknown
Apparent Right ascension
Unknown
Apparent Declination
Unknown
Sunlit
N/A
Visualization observer readout
Local Sidereal Time
18:39:15
Azimuth
Unknown
Elevation
Unknown
Doppler factor
Unknown
Orbital elements
Apogee altitude
452.926 km
Perigee altitude
450.598 km
Semi-major axis
6,829.899 km
Eccentricity
0.00017
Inclination
51.8819°
RAAN
104.8753°
Arg. of periapsis
86.0085°
True anomaly
131.24358°
Mean anomaly
131.2289°
Eccentric anomaly
131.23624°
Mean motion
3.84523 °/min
Orbital period
93.62 mins
BSTAR
0.00005851
Loading maneuver chart data...
Computing Atmospheric mass density...
Loading historical data...
Loading historical data...
Loading historical data...
Loading historical data...
Loading historical data...
Loading historical data...
Loading historical data...

Documentation

Showing up to 5 results
|